www.pogodaiklimat.ru

Погода и климат >> Архив погоды >> Антарктида >> Dumont Durville


ПОГОДА в Dumont Durville

  • Прогноз погоды в Dumont Durville
  • Монитор погоды в Dumont Durville
  • Климат города

АРХИВ ПОГОДЫ в Dumont Durville

Время (UTC), дата Ветер
(напр.,м/с)
 
Видим.   Явления Облачность Т
(С)
Тd
(С)
f
(%)
Тe
(С)
Тes
(С)
Комфортность P
(гПа)
Po
(гПа)
Тmin
(С)
Tmax
(С)
R
(мм)
R24
(мм)
S
(см)
03 13.11 СЗ 5 30 км 3/0
[Ac und]
-3.9 -10.3 61 -10 -5 978.6 973.3
06 13.11 З 2 40 км 1/0
[Ac trans Ci sp]
-2.5 -10.5 54 -5 +2 978.3 973.0
09 13.11 З 2 30 км 6/6 600 м
[Sc Ci fib]
-1.9 -10.5 52 -4 -4 978.6 973.3
12 13.11 Ю 3 н/о н/о -6.2 -15.2 49 -11 -11 979.0 973.6 -6.4 -1.2
15 13.11 ЮЗ 6 н/о н/о -8.8 -16.0 56 -17 -17 979.8 974.4
18 13.11 ЮЗ 5
{15}
н/о н/о -11.0 -18.3 55 -19 -19 980.6 975.1
21 13.11 ЮЗ 8
{15}
25 км 9/9 1000 м
[]
-8.8 -17.1 51 -18 -18 980.8 975.4
00 14.11 З 4
{15}
25 км 8/1 900 м
[Sc Ac trans Ci fib]
-4.9 -15.6 43 -11 -8 979.9 974.6 -11.1 -4.9
03 14.11 З 9 30 км 4/0
[Ac trans Ci sp]
-3.0 -9.3 62 -11 -10 979.4 974.1
06 14.11 З 10 30 км 1/0
[Ac lent Ci fib]
-2.9 -7.2 72 -12 -12 978.9 973.6
09 14.11 З 11 30 км ясно -4.4 -7.2 81 -14 -14 979.5 974.2
12 14.11 З 8 н/о н/о -6.9 -11.8 68 -16 -16 981.6 976.2 -6.9 -2.7
15 14.11 Ю 9-14
{14}
н/о н/о -8.9 -17.5 50 -19 -19 983.3 977.9
18 14.11 Ю 7
{25}
н/о н/о -10.5 -18.5 52 -20 -20 984.5 979.0
21 14.11 В 2 30 км 8/8 1000 м
[]
-8.3 -17.9 46 -12 -11 984.9 979.5
00 15.11 В 5 20 км 9/9 2000 м
[Sc]
-5.4 -16.9 40 -12 -12 984.2 978.8 -11.4 -5.4
03 15.11 СВ 6
{13}
15 км 9/9 1500 м
[Sc]
-6.3 -14.3 53 -14 -14 983.7 978.3
06 15.11 СВ 5
{16}
15 км 10/10 1300 м
[Sc]
-5.9 -13.1 57 -13 -13 982.3 976.9
09 15.11 В 6
{14}
12 км 9/9 1300 м
[Sc]
-7.8 -13.6 63 -16 -16 981.2 975.8
12 15.11 В 6
{14}
н/о н/о -8.5 -14.3 63 -17 -17 980.3 974.9 -8.5 -5.0
15 15.11 В 13-20
{21}
н/о н/о -8.4 -15.6 56 -20 -20 978.8 973.4
18 15.11 ЮВ 14-22
{23}
н/о н/о -9.6 -16.3 58 -22 -22 978.5 973.1
21 15.11 ЮВ 13-20
{24}
20 км 8/8 1500 м
[]
-8.1 -17.2 48 -19 -19 980.1 974.7
00 16.11 В 8-14
{24}
25 км 4/1 2000 м
[Sc Ci fib]
-5.2 -17.0 39 -13 -12 982.0 976.6 -10.0 -5.2
03 16.11 СЗ 5
{17}
30 км 1/0
[Ci fib]
-3.4 -11.6 53 -10 -5 983.3 978.0
06 16.11 З 7
{17}
30 км 3/0
[Ci fib]
-4.7 -10.5 64 -13 -11 983.3 977.9
09 16.11 З 5 30 км 6/3 1500 м
[Sc Ci fib]
-5.9 -9.6 75 -13 -13 983.4 978.0
12 16.11 В 5 н/о н/о -8.1 -18.2 44 -15 -15 983.8 978.4 -8.1 -3.3
15 16.11 В 6 н/о н/о -9.6 -19.6 44 -18 -18 983.9 978.4
18 16.11 ЮВ 6
{15}
н/о н/о -10.0 -20.2 43 -18 -18 984.3 978.8
21 16.11 В 3 50 км ясно -8.6 -18.4 45 -14 -12 984.7 979.3
00 17.11 В 2 50 км ясно -3.1 -16.4 35 -6 +3 984.8 979.5 -10.9 -3.1
03 17.11 С 3 50 км ясно -4.1 -12.8 51 -9 -0 984.9 979.5
06 17.11 ЮЗ 2 40 км ясно -3.9 -14.1 45 -7 +1 983.9 978.6
09 17.11 В 7 40 км 3/0
[Ci fib]
-4.2 -13.9 47 -12 -11 982.4 977.1
12 17.11 В 10-15
{15}
н/о н/о -7.3 -18.6 40 -17 -17 981.1 975.7 -7.7 -1.8
15 17.11 ЮВ 12-17
{19}
н/о н/о -9.2 -19.5 43 -20 -20 979.3 973.9
18 17.11 ЮВ 13-19
{20}
н/о н/о -9.8 -20.1 43 -21 -21 978.9 973.5
21 17.11 В 8
{20}
50 км 1/0
[]
-7.7 -20.5 35 -17 -16 980.5 975.1
00 18.11 ЮВ 6
{20}
50 км ясно -5.1 -16.6 40 -12 -8 982.2 976.8 -10.6 -4.5
03 18.11 З 4 50 км ясно -3.9 -14.4 44 -9 -2 984.0 978.7
06 18.11 С 1 50 км ясно -1.5 -13.4 40 -3 +5 985.9 980.6
09 18.11 З 3 50 км ясно -3.7 -11.2 56 -8 -6 988.4 983.0
12 18.11 Ю 11 н/о н/о -7.8 -20.0 37 -18 -18 991.1 985.6 -8.1 -0.9
15 18.11 Ю 6
{18}
н/о н/о -11.7 -20.8 47 -21 -21 993.3 987.7
18 18.11 Ю 2
{18}
н/о н/о -11.6 -21.7 43 -16 -16 995.0 989.4
21 18.11 В 2 40 км 3/0
[]
-9.6 -18.6 48 -13 -10 996.3 990.8
00 19.11 Ю 1 40 км 8/0
[Ac trans Ci]
-6.6 -17.4 42 -8 -2 996.8 991.3 -12.6 -6.6
03 19.11 СЗ 5 40 км 5/0
[Ci sp]
-4.3 -12.0 55 -11 -5 997.0 991.6
06 19.11 З 7 30 км 9/1 1500 м
[Sc Cs]
-6.8 -11.4 70 -15 -13 996.5 991.0
09 19.11 З 5 30 км 9/4 1000 м
[Sc Ac trans Cs]
-6.6 -10.1 76 -14 -14 995.5 990.0
12 19.11 СЗ 2 н/о н/о -8.4 -11.9 76 -12 -12 994.2 988.7 -8.6 -4.2
15 19.11 В 3 н/о н/о -7.6 -10.3 81 -13 -13 991.8 986.3
18 19.11 В 6 н/о н/о -6.4 -16.4 45 -14 -14 990.5 985.1
21 19.11 В 5 25 км 9/9 1500 м
[]
-5.7 -16.0 44 -12 -12 990.2 984.8
00 20.11 Ю 1 30 км 1/1 1300 м
[Sc]
-1.7 -15.5 34 -1 +8 990.3 985.0 -8.6 -1.7

 

Местоположение метеостанции Dumont Durville (Антарктида): широта -66.66 долгота 140.01 высота над уровнем моря 43 м.

В архиве по умолчанию представлена погода в Dumont Durville за последнюю неделю. Архивные данные за месяц целиком и за предыдущие месяцы, начиная с января 2011 года, Вы можете получить, выбрав интересующий диапазон дат из раскрывающегося списка и нажав кнопку "Ввод!".

Внимание! Время в таблицах - всемирное. Для получения местного времени необходимо прибавить поправку, которая в Dumont Durville равна 0 ч.

Смотрите также архив погоды в соседних городах и на ближайших метеорологических станциях:

Погода в D-47 (Антарктида) (98 км)
Погода в Sitry Point (Антарктида) (651 км)
Погода в Mid Point (Антарктида) (691 км)
Погода в Leningradskaya (Антарктида) (860 км)
Погода в Dome C II (Антарктида) (1110 км)
Погода в Macquarie Island (Австралия) (1688 км)

Пояснения к столбцам:

Ветер - указаны скорость ветра в м/с - средняя за 10 мин, порывы в срок и между сроками (в фигурных скобках) и направление, откуда дует ветер: С - северный, СВ - северо-восточный, В - восточный, ЮВ - юго-восточный, Ю - южный, ЮЗ - юго-западный, З - западный, СЗ - северо-западный.
Видимость - горизонтальная дальность видимости в метрах или километрах. При видимости от 1 до 10 км при отсутствии осадков обычно наблюдается дымка, при ухудшении видимости до 1 км и менее - туман. В сухую погоду видимость может ухудшаться дымом, пылью или мглою.
Явления - указаны атмосферные явления, наблюдавшиеся в срок или в последний час перед сроком; фигурными скобками обозначены явления, наблюдавшиеся между сроками (за 1-3 часа до срока); квадратными скобками обозначены град или гололедные отложения с указанием их диаметра в мм.
Облачность - указаны через наклонную черту общая и нижняя облачность в баллах и высота нижней границы облаков в метрах; квадратными скобками обозначены формы облаков: Ci - перистые, Cs - перисто-слоистые, Cc - перисто-кучевые, Ac - высококучевые, As - высокослоистые, Sc - слоисто-кучевые, Ns - слоисто-дождевые, Cu - кучевые, Cb - кучево-дождевые. Подробнее классификацию облаков см. в Атласе облаков (PDF).
T - Температура воздуха - температура, измеренная на высоте 2 м над землей.
Td - Температура точки росы - температура, при понижении до которой содержащийся в воздухе водяной пар достигнет насыщения.
f - Относительная влажность воздуха - влажноcть воздуха, измеренная на высоте 2 м над землей.
Te - Эффективная температура - температура, которую ощущает одетый по сезону человек в тени. Характеристика душности погоды. При расчете учитывается влияние влажности воздуха и скорости ветра на теплоощущения человека.
Tes - Эффективная температура на солнце - температура, которую ощущает человек, с поправкой на солнечный нагрев. Характеристика знойности погоды. Зависит от высоты солнца над горизонтом, облачности и скорости ветра. Ночью, в пасмурную погоду, а также при ветре 12 м/с и более поправка равна нулю.
P - Атмосферное давление - приведенное к уровню моря атмосферное давление.
Po - Атмосферное давление - измеренное на уровне метеостанции атмосферное давление.
Tmin - Минимальная температура - минимум температуры воздуха на высоте 2 м над землей.
Tmax - Максимальная температура - максимум температуры воздуха на высоте 2 м над землей.
R - Количество осадков - Количество выпавших осадков за период времени, мм. При наведении курсора мыши на число - период времени, за который выпало указанное количество осадков.
R24 - Количество осадков - Количество выпавших осадков за 24 часа, мм.
S - Снежный покров - Высота снежного покрова, см. При наведении курсора мыши на число - состояние снежного покрова и степень покрытия местности в баллах.